| time (UTC) | temp F | wind direction | speed MPH | gust MPH | rain 1hr in | rain 24hr in | rain mn in | humidity % | barometer mb |
| 20260505061515 | 45 | 208 | 5.0 | 11.0 | 0.00 | 0.11 | 0.00 | 86 | 1007.2 |
| 20260505060016 | 45 | 196 | 3.0 | 8.0 | 0.00 | 0.11 | 0.00 | 86 | 1007.0 |
| 20260505054518 | 45 | 193 | 4.0 | 9.0 | 0.00 | 0.13 | 0.00 | 86 | 1006.7 |
| 20260505053007 | 45 | 196 | 2.0 | 8.0 | 0.00 | 0.13 | 0.00 | 85 | 1006.4 |
| 20260505051503 | 45 | 241 | 3.0 | 9.0 | 0.00 | 0.13 | 0.00 | 85 | 1006.1 |
| 20260505050109 | 46 | 241 | 3.0 | 8.0 | 0.00 | 0.13 | 0.00 | 84 | 1005.9 |
| 20260505041559 | 47 | 233 | 5.0 | 11.0 | 0.00 | 0.17 | 0.00 | 82 | 1005.2 |
| 20260505040056 | 47 | 229 | 2.0 | 16.0 | 0.00 | 0.17 | 0.00 | 81 | 1004.9 |
| 20260505034604 | 47 | 249 | 7.0 | 18.0 | 0.00 | 0.17 | 0.00 | 80 | 1004.7 |
| 20260505033043 | 48 | 247 | 8.0 | 21.0 | 0.00 | 0.17 | 0.00 | 80 | 1004.6 |
| 20260505031538 | 48 | 245 | 4.0 | 19.0 | 0.00 | 0.17 | 0.00 | 80 | 1004.3 |
| 20260505030045 | 48 | 235 | 7.0 | 19.0 | 0.00 | 0.17 | 0.00 | 80 | 1004.0 |
| 20260505024534 | 48 | 276 | 6.0 | 19.0 | 0.00 | 0.17 | 0.17 | 80 | 1004.0 |
| 20260505023041 | 48 | 262 | 8.0 | 20.0 | 0.00 | 0.17 | 0.17 | 79 | 1003.8 |
| 20260505021532 | 48 | 219 | 7.0 | 14.0 | 0.00 | 0.17 | 0.17 | 78 | 1003.7 |
| 20260505020030 | 48 | 197 | 5.0 | 11.0 | 0.00 | 0.17 | 0.17 | 77 | 1003.5 |
| 20260505014536 | 49 | 232 | 7.0 | 19.0 | 0.00 | 0.20 | 0.17 | 76 | 1003.4 |
| 20260505013031 | 49 | 220 | 8.0 | 16.0 | 0.00 | 0.20 | 0.17 | 75 | 1003.4 |
| 20260505011526 | 49 | 248 | 8.0 | 17.0 | 0.00 | 0.20 | 0.17 | 73 | 1003.3 |
| 20260505010026 | 49 | 254 | 8.0 | 24.0 | 0.00 | 0.20 | 0.17 | 71 | 1003.2 |
| 20260505004550 | 49 | 203 | 8.0 | 28.0 | 0.00 | 0.30 | 0.17 | 69 | 1002.9 |
| 20260505003023 | 49 | 270 | 5.0 | 19.0 | 0.00 | 0.30 | 0.17 | 68 | 1002.8 |
| 20260505001521 | 50 | 210 | 5.0 | 21.0 | 0.00 | 0.30 | 0.17 | 66 | 1002.6 |
| 20260505000020 | 49 | 227 | 6.0 | 19.0 | 0.00 | 0.30 | 0.17 | 66 | 1002.6 |
| 20260504234519 | 48 | 221 | 5.0 | 13.0 | 0.00 | 0.49 | 0.17 | 67 | 1002.2 |
| 20260504233020 | 49 | 252 | 3.0 | 12.0 | 0.00 | 0.49 | 0.17 | 65 | 1001.9 |
| 20260504231512 | 49 | 221 | 8.0 | 24.0 | 0.00 | 0.49 | 0.17 | 63 | 1001.8 |
| 20260504230011 | 50 | 239 | 10.0 | 19.0 | 0.00 | 0.49 | 0.17 | 60 | 1001.4 |
| 20260504224509 | 50 | 240 | 8.0 | 23.0 | 0.00 | 0.56 | 0.17 | 61 | 1001.4 |
| 20260504223108 | 51 | 240 | 12.0 | 24.0 | 0.00 | 0.56 | 0.17 | 58 | 1001.2 |
| 20260504221538 | 51 | 252 | 11.0 | 26.0 | 0.00 | 0.56 | 0.17 | 60 | 1001.1 |
| 20260504220005 | 51 | 258 | 15.0 | 27.0 | 0.00 | 0.56 | 0.17 | 58 | 1000.9 |
| 20260504214504 | 51 | 262 | 7.0 | 27.0 | 0.00 | 0.72 | 0.17 | 60 | 1000.7 |
| 20260504213006 | 52 | 267 | 10.0 | 28.0 | 0.00 | 0.72 | 0.17 | 60 | 1000.7 |
| 20260504211500 | 52 | 276 | 16.0 | 35.0 | 0.00 | 0.72 | 0.17 | 57 | 1000.6 |
| 20260504210059 | 52 | 261 | 10.0 | 32.0 | 0.00 | 0.72 | 0.17 | 65 | 1000.5 |
| 20260504204557 | 52 | 274 | 9.0 | 23.0 | 0.00 | 0.75 | 0.17 | 64 | 1000.2 |
| 20260504203056 | 52 | 259 | 10.0 | 31.0 | 0.00 | 0.75 | 0.17 | 66 | 1000.3 |
| 20260504201554 | 52 | 231 | 7.0 | 23.0 | 0.00 | 0.75 | 0.17 | 70 | 999.9 |
| 20260504200049 | 52 | 267 | 9.0 | 20.0 | 0.00 | 0.75 | 0.17 | 75 | 999.3 |
| 20260504194552 | 52 | 235 | 7.0 | 28.0 | 0.00 | 0.79 | 0.17 | 75 | 999.0 |
| 20260504193047 | 51 | 278 | 7.0 | 31.0 | 0.00 | 0.79 | 0.17 | 78 | 998.8 |
| 20260504191605 | 50 | 228 | 12.0 | 31.0 | 0.00 | 0.79 | 0.17 | 80 | 998.8 |
| 20260504190039 | 49 | 278 | 9.0 | 23.0 | 0.00 | 0.79 | 0.17 | 84 | 998.6 |
| 20260504184542 | 47 | 266 | 4.0 | 24.0 | 0.00 | 0.82 | 0.17 | 86 | 998.5 |
| 20260504183028 | 46 | 211 | 12.0 | 27.0 | 0.00 | 0.82 | 0.17 | 87 | 998.2 |
| 20260504181519 | 45 | 272 | 4.0 | 25.0 | 0.00 | 0.82 | 0.17 | 90 | 998.1 |
| 20260504180015 | 44 | 268 | 6.0 | 18.0 | 0.00 | 0.82 | 0.17 | 90 | 998.0 |
| 20260504173050 | 44 | 227 | 4.0 | 19.0 | 0.00 | 0.82 | 0.17 | 91 | 997.6 |
| 20260504170133 | 44 | 235 | 6.0 | 21.0 | 0.00 | 0.82 | 0.17 | 91 | 997.0 |
| 20260504081514 | 37 | 237 | 10.0 | 21.0 | 0.03 | 0.76 | 0.12 | 100 | 976.8 |